Regional Weather Roundup
Issued by NWS

Home | Current Version | Previous Version | Graphics & Text | Print | Product List | Glossary On
Versions: 1 2 3 4 5 6 7 8 9 10 11 12 13 14 15 16 17 18 19 20 21 22 23 24 25 26 27 28 29 30 31 32 33 34 35 36 37 38 39 40 41 42 43 44 45 46 47 48 49 50
000
ASUS44 KMEG 121610
RWRTN
TENNESSEE HOURLY STATE WEATHER ROUNDUP
NATIONAL WEATHER SERVICE MEMPHIS TN
1000 AM CST TUE DEC 12 2017

TNZ002-004-019-021-049-052-054-088>092-121700-
WEST TENNESSEE

CITY           SKY/WX    TMP DP  RH WIND       PRES   REMARKS
MEMPHIS INTL   MOSUNNY   46  29  51 NW14G26   30.22R
NWS MEMPHIS      N/A     45 N/A N/A MISG        N/A
JACKSON        PTSUNNY   45  28  51 NW17G24   30.18R
DYERSBURG      SUNNY     43  26  51 NW14      30.21R
SOMERVILLE     PTSUNNY   45  30  57 NW17      30.18R
COVINGTON      SUNNY     45  27  49 N17       30.21R
UNION CITY     MOSUNNY   43  25  49 N16       30.18R
BOLIVAR        PTSUNNY   45  28  53 NW16G26   30.18R
HUNTINGDON     PTSUNNY   43  27  52 NW13G23   30.15R
LEXINGTON      CLOUDY    43  28  56 NW14G22   30.14R
SELMER         MOSUNNY   45  27  49 N14G24    30.14R
SAVANNAH       SUNNY     46  27  46 N15G25    30.13R
$$

TNZ008-025-027-028-033-062-065-066-121700-
NORTH MIDDLE TENNESSEE

CITY           SKY/WX    TMP DP  RH WIND       PRES   REMARKS
NASHVILLE      PTSUNNY   40  22  48 N23G30    30.10R WCI  30
PORTLAND       CLOUDY    36  25  64 NW15G22   30.07R WCI  26
CLARKSVILLE    CLOUDY    38  20  48 NW17G28   30.12R WCI  28
SMYRNA         CLOUDY    39  27  62 NW18G28   30.11R WCI  30
COOKEVILLE     PTSUNNY   37  28  70 NW9G22    30.03R WCI  31
GALLATIN       CLOUDY    37  27  65 NW14G29   30.12R WCI  29
CROSSVILLE     CLOUDY    35  26  69 NW20G25   29.97R WCI  24
$$

TNZ061-075-076-078-094-096-097-121700-
SOUTH MIDDLE TENNESSEE

CITY           SKY/WX    TMP DP  RH WIND       PRES   REMARKS
FAYETTEVILLE   CLOUDY    43  28  56 N12G21    30.05R
TULLAHOMA      CLOUDY    41  28  60 NW17G25   30.04R
WINCHESTER     CLOUDY    39  32  75 NW10      30.05R WCI  32
MCMINNVILLE    CLOUDY    39  32  75 NW12G20   30.04R WCI  32
COLUMBIA       CLOUDY    43  27  52 NW12G18   30.08R
SHELBYVILLE    CLOUDY    41  28  60 NW16G28   30.07R
$$

TNZ017-018-042-046-047-121700-
NORTHEAST TENNESSEE

CITY           SKY/WX    TMP DP  RH WIND       PRES   REMARKS
TRI CITIES     CLOUDY    41  33  73 W12       29.81S
ELIZABETHTON   CLOUDY    41  32  70 W9        29.80S
$$

TNZ012-013-036-069-073-074-121700-
CENTRAL EAST TENNESSEE

CITY           SKY/WX    TMP DP  RH WIND       PRES   REMARKS
KNOXVILLE      CLOUDY    43  35  73 W16G23    29.92R
OAK RIDGE      CLOUDY    43  33  68 W9        29.95R
DOWNTOWN KNOXV CLOUDY    46  32  57 NW12G20   29.92R
GATLINBURG     CLOUDY    46  30  53 W6G18     29.90R
MORRISTOWN     PTSUNNY   43  32  65 NW10G21   29.87R
JACKSBORO      CLOUDY    37  30  75 VRB7G21   29.97R WCI  32
$$

TNZ083-085-099-121700-
SOUTHEAST TENNESSEE

CITY           SKY/WX    TMP DP  RH WIND       PRES   REMARKS
CHATTANOOGA    CLOUDY    43  30  60 NW18G25   30.02R
DAYTON         CLOUDY    43  32  65 W10G20    29.99R
$$

SKY/WX REPORTED AS FAIR MEANS FEW OR NO CLOUDS BELOW
12 THOUSAND FEET.




USA.gov is the U.S. government's official web portal to all federal, state and local government web resources and services.